Location: Wildlife_Club
(35.6000°N, 81.4330°W)
Time: 10:45:41
(UTC-04:00)

Iridium 56 - Visible Passes

Search period start: 23 April 2014 00:00
Search period end: 03 May 2014 00:00
Orbit: 776 x 779 km, 86.4° (Epoch: 22 April)

Date Brightness Start Highest point End Pass type
(mag) Time Alt. Az. Time Alt. Az. Time Alt. Az.
23 Apr 8.4 05:20:30 10° NE 05:23:52 17° ENE 05:27:14 10° ESE visible
25 Apr 6.7 05:52:46 10° N 05:57:48 48° E 06:02:48 10° SSE visible
26 Apr 7.9 05:19:51 10° NNE 05:24:07 25° E 05:28:22 10° SE visible
27 Apr 8.5 04:47:54 10° NE 04:50:19 13° ENE 04:52:43 10° ESE visible
28 Apr 5.9 05:52:43 10° N 05:57:55 72° E 06:03:06 10° S visible
29 Apr 7.1 05:19:30 10° NNE 05:24:19 37° E 05:29:06 10° SSE visible
30 Apr 8.1 04:46:51 10° NNE 04:50:35 20° E 04:54:18 10° SE visible
01 May 5.5 05:52:47 10° N 05:58:00 77° W 06:03:11 10° S visible
02 May 6.3 05:19:20 10° N 05:24:28 55° E 05:29:32 10° SSE visible
